This is the latest recevied weather packets stored in our database for station/object N5PRN. If no packets are shown the sender has not sent any weather packets the latest 10 day(s).
| Time | Temp. | Humidity | Pressure | Rain* | Wind** | Luminosity | Snow |
|---|---|---|---|---|---|---|---|
| 1777824873 | 22.78° C | 51% | 1022.5 hPa | 0 mm | - | 787 W/m² | - |
| 1777824569 | 22.78° C | 54% | 1022.4 hPa | 0 mm | - | 822 W/m² | - |
| 1777824266 | 22.78° C | 56% | 1022.4 hPa | 0 mm | - | 857 W/m² | - |
| 1777823961 | 22.78° C | 54% | 1022.6 hPa | 0 mm | - | 879 W/m² | - |
| 1777823659 | 22.22° C | 53% | 1022.5 hPa | 0 mm | - | 913 W/m² | - |
| 1777823355 | 22.78° C | 54% | 1022.7 hPa | 0 mm | - | 924 W/m² | - |
| 1777823053 | 22.78° C | 56% | 1022.7 hPa | 0 mm | - | 938 W/m² | - |
| 1777822751 | 22.22° C | 57% | 1022.5 hPa | 0 mm | - | 948 W/m² | - |
| 1777822449 | 22.22° C | 55% | 1022.7 hPa | 0 mm | - | 941 W/m² | - |
| 1777822146 | 21.67° C | 56% | 1022.8 hPa | 0 mm | - | 947 W/m² | - |
| 1777821843 | 21.67° C | 55% | 1022.8 hPa | 0 mm | - | 861 W/m² | - |
| 1777821540 | 22.22° C | 56% | 1022.6 hPa | 0 mm | - | 800 W/m² | - |
| 1777821239 | 21.67° C | 56% | 1022.6 hPa | 0 mm | - | 782 W/m² | - |
| 1777820935 | 21.67° C | 57% | 1022.9 hPa | 0 mm | - | 745 W/m² | - |
| 1777820631 | 21.11° C | 57% | 1022.6 hPa | 0 mm | - | 708 W/m² | - |
| 1777820327 | 20.56° C | 59% | 1022.6 hPa | 0 mm | - | 715 W/m² | - |
| 1777820026 | 20.56° C | 58% | 1022.7 hPa | 0 mm | - | 696 W/m² | - |
| 1777819722 | 20.56° C | 60% | 1022.8 hPa | 0 mm | - | 644 W/m² | - |
| 1777819421 | 20° C | 61% | 1022.8 hPa | 0 mm | - | 653 W/m² | - |
| 1777819118 | 19.44° C | 64% | 1022.7 hPa | 0 mm | - | 646 W/m² | - |
| 1777818814 | 19.44° C | 65% | 1022.7 hPa | 0 mm | - | 584 W/m² | - |
| 1777818510 | 18.89° C | 70% | 1022.8 hPa | 0 mm | - | 619 W/m² | - |
| 1777818208 | 18.33° C | 73% | 1022.7 hPa | 0 mm | - | 590 W/m² | - |
| 1777817904 | 17.78° C | 74% | 1022.6 hPa | 0 mm | - | 578 W/m² | - |
| 1777817601 | 17.22° C | 75% | 1022.6 hPa | 0 mm | - | 549 W/m² | - |
* Rain latest hour (hover to see other rain measurements)
** Current wind speed in m/s (hover to see current wind gust speed)